Home > Time Zones > World Clock > Weather > U.S.A. > Knox > Past weeks

Flag for U.S.A. Weather past 2 weeks in Knox, Indiana, U.S.A.

Now
70 °F

Sunny.


Feels Like: 69 °F
Forecast: 65 / 84 °F
Wind: 6 mph from West

Location: Porter County Municipal Airport

Current Time: Aug 20, 2014 at 8:17:54 AM

Latest Report: Aug 20, 2014 at 7:53 AM


Visibility: 10 mi

Pressure: 29.85 "Hg

Humidity: 84%

Dew point: 65 °F

Location of KnoxLocation

Historic Weather in Knox — Graph

°F

Knox temperature yesterday

Maximum temperature yesterday: 82 °F (at 12:53 PM)
Minimum temperature yesterday: 66 °F (at 1:59 AM)
Average temperature yesterday: 73 °F

Past Weeks' High & Low Weather Summary

 TemperatureHumidityPressure
High84 °F (Aug 10, 2:53 PM)97% (Aug 5, 6:53 AM)30.12 "Hg (Aug 5, 6:53 AM)
Low44 °F (Aug 15, 5:53 AM)40% (Aug 8, 3:53 PM)29.73 "Hg (Aug 12, 3:53 AM)
Average68 °F79%29.97 "Hg
* Reported Aug 5 6:53 AM — Aug 20 6:53 AM, Knox, Weather by CustomWeather, © 2014

Note: Actual official high and low records may vary slightly from our data, if they occured in-between our weather recording intervals... More about our weather records

Advertising

Knox weather history for previous 24 hours

 ConditionsComfort  
Time TempWeatherWind HumidityBarometerVisibility
6:53 AM
Aug 20
65 °FSunny.No wind94%29.84 "Hg8 mi
5:53 AM64 °FClear.3 mph94%29.83 "Hg9 mi
4:53 AM64 °FClear.5 mph94%29.83 "Hg7 mi
3:53 AM65 °FClear.3 mph97%29.81 "Hg7 mi
2:53 AM65 °FClear.6 mph97%29.80 "Hg7 mi
1:53 AM67 °FClear.6 mph93%29.79 "Hg9 mi
12:53 AM67 °FPassing clouds.6 mph93%29.78 "Hg10 mi
11:53 PM
Aug 19
68 °FPassing clouds.5 mph90%29.79 "Hg10 mi
10:53 PM69 °FClear.6 mph87%29.78 "Hg10 mi
9:53 PM71 °FPassing clouds.7 mph81%29.77 "Hg10 mi
8:53 PM73 °FClear.8 mph81%29.75 "Hg10 mi
7:53 PM75 °FClear.6 mph76%29.75 "Hg10 mi
6:53 PM78 °FSunny.7 mph69%29.74 "Hg10 mi
5:53 PM77 °FPartly sunny.8 mph69%29.75 "Hg10 mi
4:53 PM78 °FPartly sunny.9 mph62%29.75 "Hg10 mi
3:53 PM78 °FSunny.13 mph62%29.74 "Hg10 mi
2:53 PM77 °FSunny.14 mph66%29.73 "Hg10 mi
1:53 PM75 °FLight rain. Broken clouds.16 mph76%29.75 "Hg10 mi
12:53 PM82 °FScattered clouds.23 mph65%29.75 "Hg10 mi
11:53 AM81 °FBroken clouds.16 mph69%29.77 "Hg10 mi
10:53 AM80 °FPassing clouds.15 mph71%29.77 "Hg10 mi
9:53 AM77 °FSunny.14 mph79%29.77 "Hg9 mi
8:53 AM73 °FSunny.9 mph84%29.78 "Hg6 mi
Weather by CustomWeather, © 2014

See weather overviewHow to use our weather pages